SCP
0 0 0 0 0 0 0 0 0 0 0 0 0 0 0 0 0 0 0 0 0 0 0 0 0 0 0 0 0 0 0 0 0 0 -0 -0 -0 -0 -0 -0 -0 -0 -0 -0
0 0 0 0 0 0 0 0 0 0 0 0 0 0 0 0 0 0 0 0 0 0 0 0 0 0 0 0 0 0 0 0 0 0 0 0 0 0 -0 -0 -0 -0 -0 -0
0 0 0 0 0 0 0 0 0 0 0 0 0 0 0 0 0 0 0 0 0 0 0 0 0 0 0 0 0 0 0 0 0 0 0 0 0 0 0 0 0 -0 -0 -0
0 0 0 0 0 0 0 0 0 0 0 0 0 0 0 0 0 0 0 0 0 0 0 0 0 0 0 0 0 0 0 0 0 0 0 0 0 0 0 0 0 0 0 0
0 0 0 0 0 0 0 0 0 0 0 0 0 0 0 0 0 0 0 0 0 0 0 0 0 0 0 0 0 0 0 0 0 0 0 0 0 0 0 0 0 0 0 0
0 0 0 0 0 0 0 0 0 0 0 0 0 0 0 0 0 0 0 0 0 0 0 0 0 0 0 0 0 0 0 0 0 0 0 0 0 0 0 0 0 0 0 0
0 0 0 0 0 0 0 0 0 0 0 0 0 0 0 0 0 0 0 0 0 0 0 0 0 0 0 0 0 0 0 0 0 0 0 0 0 0 0 0 0 0 0 0
0 0 0 0 0 0 0 0 0 0 0 0 0 0 0 0 0 0 0 0 0 0 0 0 0 0 0 0 0 0 0 0 0 0 0 0 0 0 0 0 0 0 0 0
0 0 0 0 0 0 0 0 0 0 0 0 0 0 0 0 0 0 0 0 0 0 0 0 0 0 0 0 0 0 0 0 0 0 0 0 0 0 0 0 0 0 0 0
0 0 0 0 0 0 0 0 0 0 0 0 0 0 0 0 0 0 0 0 0 0 0 0 0 0 0 0 0 0 0 0 0 0 0 0 0 0 0 0 0 0 0 0
0 0 0 0 0 0 0 0 0 0 0 0 0 0 0 0 0 0 0 0 0 0 0 0 0 0 0 0 0 0 0 0 0 0 0 0 0 0 0 0 0 0 0 0
0 0 0 0 0 0 0 0 0 0 0 0 0 0 0 0 0 0 0 0 0 0 0 0 0 0 0 0 0 0 0 0 0 0 0 0 0 0 0 0 0 0 0 0
0 0 0 0 0 0 0 0 0 0 0 0 0 0 0 0 0 0 0 0 0 0 0 0 0 0 0 0 0 0 0 0 0 0 0 0 0 0 0 0 0 0 0 0
0 0 0 0 0 0 0 0 0 0 0 0 0 0 0 0 0 0 0 0 0 0 0 0 0 0 0 0 0 0 0 0 0 0 0 0 0 0 0 0 0 0 0 0
0 0 0 0 0 0 0 0 0 0 0 0 0 0 0 0 0 0 0 0 0 0 0 0 0 0 0 0 0 0 0 0 0 0 0 0 0 0 0 0 0 0 0 0
0 0 0 0 0 0 0 0 0 0 0 0 0 0 0 0 0 0 0 0 0 0 0 0 0 0 0 0 0 0 0 -0 -0 0 0 0 0 0 0 0 0 0 0 0
0 0 0 0 0 0 0 0 0 0 0 0 0 0 0 0 0 0 0 0 0 0 0 0 0 0 0 0 0 0 0 0 -0 0 0 0 0 0 0 0 0 0 0 0
0 0 0 0 0 0 0 0 0 0 0 0 0 0 0 0 0 0 0 0 0 0 0 0 0 0 0 0 0 0 0 0 0 0 0 0 0 0 0 0 0 0 0 0
0 0 0 0 0 0 0 0 0 0 0 0 0 0 0 0 0 0 0 0 0 0 0 0 0 0 0 0 0 0 0 0 0 0 0 0 0 0 0 0 0 0 0 0
0 0 0 0 0 0 0 0 0 0 0 0 0 0 0 0 0 0 0 0 0 0 0 0 0 0 0 0 0 0 0 0 0 0 0 0 0 0 0 0 0 0 0 0
0 0 0 0 0 0 0 0 0 0 0 0 0 0 0 0 0 0 0 0 0 0 0 0 0 0 0 0 0 0 0 0 0 0 0 0 0 0 0 0 0 0 0 0
0 0 0 0 0 0 0 0 0 0 0 0 0 0 0 0 0 0 0 0 0 0 0 0 0 0 0 0 0 0 0 0 0 0 0 0 0 0 0 0 0 0 0 0
0 0 0 0 0 0 0 0 0 0 0 0 0 0 0 0 0 0 0 0 0 0 0 0 0 0 0 0 0 0 0 0 0 0 0 0 0 0 0 0 0 0 0 0
0 0 0 0 0 0 0 0 0 0 0 0 0 0 0 0 0 0 0 0 0 0 0 0 0 0 0 0 0 0 0 0 0 0 0 0 0 0 0 0 0 0 0 0
0 0 0 0 0 0 0 0 0 0 0 0 0 0 0 0 0 0 0 0 0 0 0 0 0 0 0 0 0 0 0 0 0 0 0 0 0 0 0 0 0 0 0 0
0 0 0 0 0 0 0 0 0 0 0 0 0 0 0 0 0 0 0 0 0 0 0 0 0 0 0 0 0 0 0 0 0 0 0 0 0 0 0 0 0 0 0 0
0 0 0 0 0 0 0 0 0 0 0 0 0 0 0 0 0 -0 0 0 0 0 0 0 0 0 0 0 0 0 0 0 0 0 0 0 0 0 0 0 0 0 0 0
Wind_Speed_500mb
11 3 6 8 19 22 11 19 15 39 33 38 34 18 13 7 9 22 26 25 28 27 29 23 21 26 28 33 40 43 47 50 52 58 64 69 72 74 74 74 75 78 82 84
9 4 9 15 36 24 28 32 30 38 44 36 10 5 13 17 15 17 16 11 11 22 29 30 28 28 31 35 39 46 52 53 59 65 70 71 73 78 84 90 94 97 99 99
11 4 7 14 29 31 24 22 14 17 20 2 7 11 14 12 10 12 16 14 12 15 17 22 21 26 33 39 43 46 53 57 64 68 72 75 80 86 91 97 103 109 114 116
7 7 4 17 8 9 16 15 9 3 9 19 15 15 12 12 18 21 19 20 24 25 25 27 32 34 41 43 47 53 58 64 68 71 74 81 89 97 103 105 108 111 115 115
7 10 11 25 11 10 10 14 13 11 7 19 17 6 11 9 5 7 17 27 28 22 26 30 36 41 42 45 50 58 63 66 70 78 87 94 98 100 100 102 106 109 112 115
5 11 19 13 7 20 15 16 20 24 17 20 11 2 9 12 26 37 40 42 36 30 37 42 43 43 48 53 58 61 66 73 82 88 91 93 95 96 97 97 103 104 110 108
28 12 14 13 16 16 9 17 13 18 29 26 11 26 31 32 40 40 41 36 36 40 42 42 42 48 52 55 57 65 75 85 88 88 89 90 94 93 95 97 97 94 93 88
4 2 17 24 8 14 18 20 21 26 27 30 39 46 44 50 42 38 43 43 43 43 43 45 46 49 52 54 62 74 82 84 86 85 86 87 89 91 89 84 83 84 85 86
20 14 12 39 22 34 37 34 29 30 39 48 48 47 43 45 45 47 44 47 47 46 47 48 48 49 51 59 71 78 80 84 82 84 84 82 85 87 82 76 77 79 78 82
6 11 24 46 58 56 51 49 55 61 55 50 43 50 44 47 51 50 50 49 49 52 49 46 45 46 54 64 72 75 78 77 80 83 83 81 77 71 69 70 74 76 80 88
16 24 43 55 66 69 71 67 66 67 60 59 51 49 48 52 54 55 56 54 53 49 46 45 44 48 56 63 68 72 72 73 76 78 79 78 68 65 66 66 65 74 81 83
26 45 37 50 66 58 53 54 54 49 52 45 47 52 49 53 52 54 54 52 51 48 49 45 46 52 56 60 64 65 66 69 72 74 74 71 70 71 61 62 62 64 68 71
53 66 66 72 70 68 64 59 56 55 56 55 52 52 51 50 53 53 50 47 47 48 48 45 49 53 53 55 57 57 60 65 67 68 69 68 69 72 80 77 71 65 61 63
68 64 55 68 54 69 67 64 63 56 50 51 51 50 48 49 51 48 46 48 49 47 43 45 50 48 50 53 51 51 53 57 60 63 64 62 64 68 71 75 80 86 75 65
80 79 76 76 71 61 56 52 53 49 47 47 47 47 47 47 46 45 45 45 47 46 42 47 50 43 47 46 47 45 50 53 53 57 57 54 57 63 68 72 73 77 80 74
67 66 62 65 69 61 53 47 44 45 45 45 43 43 43 43 43 41 38 42 50 46 43 46 46 45 43 43 42 41 44 47 50 51 50 51 54 60 65 67 68 71 70 70
48 53 55 51 47 39 35 36 39 39 39 40 40 38 38 40 41 39 39 43 48 47 46 47 46 41 39 39 36 37 41 42 44 45 45 45 48 52 56 57 60 62 62 59
54 50 39 29 27 32 33 32 31 31 33 34 36 37 39 41 41 40 41 46 47 46 43 45 42 39 36 32 32 34 34 37 38 40 39 39 40 43 48 51 53 57 61 61
40 37 32 28 26 24 24 27 27 27 28 32 35 39 41 40 41 44 46 50 49 48 37 39 40 35 29 28 29 29 29 31 31 32 33 33 34 36 40 45 49 51 55 59
30 28 26 23 21 22 23 23 23 23 27 30 35 38 41 40 44 47 51 55 46 46 43 36 33 27 23 25 26 25 25 26 28 29 29 29 32 35 37 39 42 46 50 52
28 26 23 19 16 16 17 17 19 22 28 34 39 42 46 47 45 48 52 55 37 41 35 29 25 23 24 23 23 23 23 23 25 26 27 28 29 30 33 36 39 43 46 48
27 22 18 15 12 10 12 18 22 27 31 35 39 44 48 48 44 44 44 44 29 29 25 23 24 24 25 23 20 21 22 22 23 24 24 25 28 29 31 33 36 38 40 42
21 17 13 10 7 9 14 19 24 27 29 31 34 35 37 38 35 36 31 21 20 16 19 21 20 21 22 21 20 21 22 22 23 23 24 25 27 28 29 30 32 34 36 38
18 14 7 3 6 10 14 16 18 22 25 25 26 25 27 26 19 17 21 18 22 24 23 19 18 20 20 20 20 21 22 22 23 24 24 25 26 27 29 31 32 32 32 33
12 6 2 5 9 11 12 13 14 16 16 16 18 19 19 22 24 21 21 24 22 21 18 17 18 19 19 18 20 21 21 21 22 23 24 25 25 26 27 29 32 33 33 33
9 6 3 3 5 7 7 9 11 13 14 13 13 18 17 19 19 19 18 17 16 16 16 16 17 17 16 18 19 20 21 22 23 25 25 26 27 27 27 28 29 30 31 31
8 7 5 4 3 4 7 9 10 10 12 14 14 17 17 17 17 16 16 15 14 14 15 14 15 17 18 19 21 23 25 26 27 27 27 29 30 31 30 30 31 31 31 31
Wind_Direction_500mb
254 299 126 224 260 281 212 241 232 268 270 271 288 298 263 216 182 194 204 214 231 233 232 244 278 291 296 306 316 316 318 317 319 320 319 317 316 315 314 313 313 311 310 309
306 220 273 269 264 260 253 256 252 257 265 271 254 205 164 165 171 171 173 201 252 234 240 267 276 274 276 284 291 302 310 309 312 314 313 313 312 312 312 313 311 309 306 304
264 190 52 309 252 246 238 233 229 242 252 231 237 198 176 192 230 256 263 247 240 249 274 265 275 282 287 288 291 297 302 301 306 310 311 312 311 309 306 304 302 301 301 300
218 48 233 244 275 209 206 234 196 176 227 220 213 179 192 248 271 274 258 244 257 271 270 269 281 289 289 287 292 298 302 307 310 310 309 308 306 305 304 303 301 299 297 296
177 203 300 295 254 203 191 275 170 203 224 204 184 209 256 278 202 272 278 288 283 271 271 278 283 288 284 292 299 304 307 309 310 309 308 308 306 306 305 303 301 299 296 294
126 194 207 235 177 141 116 270 221 229 232 168 149 165 247 284 295 289 280 285 286 274 277 277 282 288 294 300 305 308 310 312 312 311 311 311 310 309 307 304 301 299 296 295
223 231 275 241 195 146 105 263 163 209 191 180 186 236 275 292 303 290 281 272 264 267 267 271 282 292 297 303 308 312 314 314 314 315 315 314 313 313 312 309 306 303 302 302
102 131 264 191 130 160 225 189 209 201 219 233 273 279 275 288 291 282 271 263 261 259 267 278 289 296 303 307 313 314 313 315 316 318 318 318 317 317 316 313 310 309 310 310
185 202 214 191 210 252 253 226 214 233 263 278 276 272 280 288 284 282 264 253 256 266 275 284 293 300 303 312 314 314 316 317 319 320 322 323 324 322 316 315 313 310 306 307
82 211 233 256 259 263 261 248 265 277 280 280 261 279 274 283 284 275 268 256 265 271 277 284 291 297 306 314 313 315 317 319 323 324 326 330 325 320 319 318 315 310 308 307
258 260 266 264 262 266 270 271 272 277 277 276 276 271 272 280 277 269 262 263 269 276 279 285 291 300 311 312 313 315 318 323 326 329 332 326 328 332 324 320 311 307 303 302
252 250 244 262 271 270 273 274 270 270 275 265 266 272 281 283 268 256 256 263 271 275 282 287 293 304 312 312 313 316 320 327 329 334 330 331 336 334 335 326 311 305 303 302
248 262 265 267 268 267 273 274 273 277 272 272 272 274 275 265 259 257 260 266 268 274 280 285 294 306 308 310 310 315 324 328 333 334 331 340 339 336 333 336 333 324 314 312
258 263 262 262 252 266 272 271 271 268 260 262 265 265 261 258 259 261 265 271 273 273 277 288 298 306 306 305 309 316 327 329 334 334 337 342 340 337 334 332 328 333 337 326
265 263 257 266 267 263 261 258 258 255 258 261 261 261 262 261 261 263 268 269 270 275 283 290 298 305 300 304 307 320 326 332 335 336 341 342 341 339 339 337 331 329 332 337
263 267 265 258 261 258 253 247 252 258 262 264 264 264 264 264 265 268 268 271 273 277 285 292 298 297 299 301 307 319 325 330 340 336 339 344 345 345 343 342 342 340 340 343
261 262 259 246 241 242 248 255 258 262 264 264 265 264 262 262 266 269 268 267 272 281 291 294 295 294 295 296 307 317 321 332 336 337 342 345 349 350 350 351 352 350 352 353
260 254 255 254 248 245 250 254 256 257 255 259 260 263 265 267 270 271 272 274 280 286 291 288 289 286 287 294 304 309 319 329 337 341 343 349 355 355 358 0 3 3 5 10
250 252 251 251 250 247 245 247 248 251 255 259 264 269 274 279 283 283 284 284 287 292 293 284 278 277 282 290 297 304 316 324 338 345 349 356 2 1 3 6 8 11 12 14
235 237 237 232 230 232 237 243 251 260 268 275 278 281 283 285 284 286 286 288 294 291 286 278 267 269 277 285 292 299 310 323 336 345 352 1 3 4 5 7 8 11 13 16
217 215 215 219 226 235 244 259 275 285 290 292 293 294 294 294 293 290 288 287 292 277 271 262 266 269 271 278 286 296 304 317 327 338 349 358 2 5 7 9 10 12 14 15
198 199 204 211 220 243 272 287 294 297 298 298 297 297 295 295 293 286 285 286 284 270 262 257 265 267 267 273 284 293 301 310 317 325 335 344 351 357 1 3 5 6 8 11
186 191 193 202 227 272 295 306 309 311 311 307 304 302 300 302 302 297 293 286 276 263 267 268 264 266 270 277 285 290 295 301 305 311 320 329 334 338 342 348 352 353 356 359
170 170 175 246 304 313 317 321 323 321 320 320 319 318 318 319 310 295 294 287 283 278 272 268 265 265 273 278 285 289 292 298 303 308 314 320 322 326 330 334 337 339 342 346
150 143 85 341 337 330 334 341 343 344 341 336 332 326 328 327 316 314 290 281 281 277 278 271 269 273 276 282 286 289 295 301 304 309 313 317 321 325 327 329 330 334 338 341
134 126 82 11 358 347 355 9 7 360 354 347 331 321 319 320 315 309 306 301 297 291 286 282 280 278 285 287 290 294 298 299 304 305 310 314 317 320 325 328 329 331 333 336
132 120 117 119 98 37 8 7 11 5 353 348 350 339 334 329 324 320 316 313 308 303 300 296 300 295 291 294 296 296 297 299 301 304 308 308 310 314 317 321 323 325 326 329
Wind_Speed_850mb
11 3 6 8 19 22 11 19 15 39 33 38 34 18 13 7 9 22 26 25 28 27 29 23 21 26 28 33 40 43 47 50 52 58 64 69 72 74 74 74 75 78 82 84
9 4 9 15 36 24 28 32 30 38 44 36 10 5 13 17 15 17 16 11 11 22 29 30 28 28 31 35 39 46 52 53 59 65 70 71 73 78 84 90 94 97 99 99
11 4 7 14 29 31 24 22 14 17 20 2 7 11 14 12 10 12 16 14 12 15 17 22 21 26 33 39 43 46 53 57 64 68 72 75 80 86 91 97 103 109 114 116
7 7 4 17 8 9 16 15 9 3 9 19 15 15 12 12 18 21 19 20 24 25 25 27 32 34 41 43 47 53 58 64 68 71 74 81 89 97 103 105 108 111 115 115
7 10 11 25 11 10 10 14 13 11 7 19 17 6 11 9 5 7 17 27 28 22 26 30 36 41 42 45 50 58 63 66 70 78 87 94 98 100 100 102 106 109 112 115
5 11 19 13 7 20 15 16 20 24 17 20 11 2 9 12 26 37 40 42 36 30 37 42 43 43 48 53 58 61 66 73 82 88 91 93 95 96 97 97 103 104 110 108
28 12 14 13 16 16 9 17 13 18 29 26 11 26 31 32 40 40 41 36 36 40 42 42 42 48 52 55 57 65 75 85 88 88 89 90 94 93 95 97 97 94 93 88
4 2 17 24 8 14 18 20 21 26 27 30 39 46 44 50 42 38 43 43 43 43 43 45 46 49 52 54 62 74 82 84 86 85 86 87 89 91 89 84 83 84 85 86
20 14 12 39 22 34 37 34 29 30 39 48 48 47 43 45 45 47 44 47 47 46 47 48 48 49 51 59 71 78 80 84 82 84 84 82 85 87 82 76 77 79 78 82
6 11 24 46 58 56 51 49 55 61 55 50 43 50 44 47 51 50 50 49 49 52 49 46 45 46 54 64 72 75 78 77 80 83 83 81 77 71 69 70 74 76 80 88
16 24 43 55 66 69 71 67 66 67 60 59 51 49 48 52 54 55 56 54 53 49 46 45 44 48 56 63 68 72 72 73 76 78 79 78 68 65 66 66 65 74 81 83
26 45 37 50 66 58 53 54 54 49 52 45 47 52 49 53 52 54 54 52 51 48 49 45 46 52 56 60 64 65 66 69 72 74 74 71 70 71 61 62 62 64 68 71
53 66 66 72 70 68 64 59 56 55 56 55 52 52 51 50 53 53 50 47 47 48 48 45 49 53 53 55 57 57 60 65 67 68 69 68 69 72 80 77 71 65 61 63
68 64 55 68 54 69 67 64 63 56 50 51 51 50 48 49 51 48 46 48 49 47 43 45 50 48 50 53 51 51 53 57 60 63 64 62 64 68 71 75 80 86 75 65
80 79 76 76 71 61 56 52 53 49 47 47 47 47 47 47 46 45 45 45 47 46 42 47 50 43 47 46 47 45 50 53 53 57 57 54 57 63 68 72 73 77 80 74
67 66 62 65 69 61 53 47 44 45 45 45 43 43 43 43 43 41 38 42 50 46 43 46 46 45 43 43 42 41 44 47 50 51 50 51 54 60 65 67 68 71 70 70
48 53 55 51 47 39 35 36 39 39 39 40 40 38 38 40 41 39 39 43 48 47 46 47 46 41 39 39 36 37 41 42 44 45 45 45 48 52 56 57 60 62 62 59
54 50 39 29 27 32 33 32 31 31 33 34 36 37 39 41 41 40 41 46 47 46 43 45 42 39 36 32 32 34 34 37 38 40 39 39 40 43 48 51 53 57 61 61
40 37 32 28 26 24 24 27 27 27 28 32 35 39 41 40 41 44 46 50 49 48 37 39 40 35 29 28 29 29 29 31 31 32 33 33 34 36 40 45 49 51 55 59
30 28 26 23 21 22 23 23 23 23 27 30 35 38 41 40 44 47 51 55 46 46 43 36 33 27 23 25 26 25 25 26 28 29 29 29 32 35 37 39 42 46 50 52
28 26 23 19 16 16 17 17 19 22 28 34 39 42 46 47 45 48 52 55 37 41 35 29 25 23 24 23 23 23 23 23 25 26 27 28 29 30 33 36 39 43 46 48
27 22 18 15 12 10 12 18 22 27 31 35 39 44 48 48 44 44 44 44 29 29 25 23 24 24 25 23 20 21 22 22 23 24 24 25 28 29 31 33 36 38 40 42
21 17 13 10 7 9 14 19 24 27 29 31 34 35 37 38 35 36 31 21 20 16 19 21 20 21 22 21 20 21 22 22 23 23 24 25 27 28 29 30 32 34 36 38
18 14 7 3 6 10 14 16 18 22 25 25 26 25 27 26 19 17 21 18 22 24 23 19 18 20 20 20 20 21 22 22 23 24 24 25 26 27 29 31 32 32 32 33
12 6 2 5 9 11 12 13 14 16 16 16 18 19 19 22 24 21 21 24 22 21 18 17 18 19 19 18 20 21 21 21 22 23 24 25 25 26 27 29 32 33 33 33
9 6 3 3 5 7 7 9 11 13 14 13 13 18 17 19 19 19 18 17 16 16 16 16 17 17 16 18 19 20 21 22 23 25 25 26 27 27 27 28 29 30 31 31
8 7 5 4 3 4 7 9 10 10 12 14 14 17 17 17 17 16 16 15 14 14 15 14 15 17 18 19 21 23 25 26 27 27 27 29 30 31 30 30 31 31 31 31
Wind_Direction_850mb
254 299 126 224 260 281 212 241 232 268 270 271 288 298 263 216 182 194 204 214 231 233 232 244 278 291 296 306 316 316 318 317 319 320 319 317 316 315 314 313 313 311 310 309
306 220 273 269 264 260 253 256 252 257 265 271 254 205 164 165 171 171 173 201 252 234 240 267 276 274 276 284 291 302 310 309 312 314 313 313 312 312 312 313 311 309 306 304
264 190 52 309 252 246 238 233 229 242 252 231 237 198 176 192 230 256 263 247 240 249 274 265 275 282 287 288 291 297 302 301 306 310 311 312 311 309 306 304 302 301 301 300
218 48 233 244 275 209 206 234 196 176 227 220 213 179 192 248 271 274 258 244 257 271 270 269 281 289 289 287 292 298 302 307 310 310 309 308 306 305 304 303 301 299 297 296
177 203 300 295 254 203 191 275 170 203 224 204 184 209 256 278 202 272 278 288 283 271 271 278 283 288 284 292 299 304 307 309 310 309 308 308 306 306 305 303 301 299 296 294
126 194 207 235 177 141 116 270 221 229 232 168 149 165 247 284 295 289 280 285 286 274 277 277 282 288 294 300 305 308 310 312 312 311 311 311 310 309 307 304 301 299 296 295
223 231 275 241 195 146 105 263 163 209 191 180 186 236 275 292 303 290 281 272 264 267 267 271 282 292 297 303 308 312 314 314 314 315 315 314 313 313 312 309 306 303 302 302
102 131 264 191 130 160 225 189 209 201 219 233 273 279 275 288 291 282 271 263 261 259 267 278 289 296 303 307 313 314 313 315 316 318 318 318 317 317 316 313 310 309 310 310
185 202 214 191 210 252 253 226 214 233 263 278 276 272 280 288 284 282 264 253 256 266 275 284 293 300 303 312 314 314 316 317 319 320 322 323 324 322 316 315 313 310 306 307
82 211 233 256 259 263 261 248 265 277 280 280 261 279 274 283 284 275 268 256 265 271 277 284 291 297 306 314 313 315 317 319 323 324 326 330 325 320 319 318 315 310 308 307
258 260 266 264 262 266 270 271 272 277 277 276 276 271 272 280 277 269 262 263 269 276 279 285 291 300 311 312 313 315 318 323 326 329 332 326 328 332 324 320 311 307 303 302
252 250 244 262 271 270 273 274 270 270 275 265 266 272 281 283 268 256 256 263 271 275 282 287 293 304 312 312 313 316 320 327 329 334 330 331 336 334 335 326 311 305 303 302
248 262 265 267 268 267 273 274 273 277 272 272 272 274 275 265 259 257 260 266 268 274 280 285 294 306 308 310 310 315 324 328 333 334 331 340 339 336 333 336 333 324 314 312
258 263 262 262 252 266 272 271 271 268 260 262 265 265 261 258 259 261 265 271 273 273 277 288 298 306 306 305 309 316 327 329 334 334 337 342 340 337 334 332 328 333 337 326
265 263 257 266 267 263 261 258 258 255 258 261 261 261 262 261 261 263 268 269 270 275 283 290 298 305 300 304 307 320 326 332 335 336 341 342 341 339 339 337 331 329 332 337
263 267 265 258 261 258 253 247 252 258 262 264 264 264 264 264 265 268 268 271 273 277 285 292 298 297 299 301 307 319 325 330 340 336 339 344 345 345 343 342 342 340 340 343
261 262 259 246 241 242 248 255 258 262 264 264 265 264 262 262 266 269 268 267 272 281 291 294 295 294 295 296 307 317 321 332 336 337 342 345 349 350 350 351 352 350 352 353
260 254 255 254 248 245 250 254 256 257 255 259 260 263 265 267 270 271 272 274 280 286 291 288 289 286 287 294 304 309 319 329 337 341 343 349 355 355 358 0 3 3 5 10
250 252 251 251 250 247 245 247 248 251 255 259 264 269 274 279 283 283 284 284 287 292 293 284 278 277 282 290 297 304 316 324 338 345 349 356 2 1 3 6 8 11 12 14
235 237 237 232 230 232 237 243 251 260 268 275 278 281 283 285 284 286 286 288 294 291 286 278 267 269 277 285 292 299 310 323 336 345 352 1 3 4 5 7 8 11 13 16
217 215 215 219 226 235 244 259 275 285 290 292 293 294 294 294 293 290 288 287 292 277 271 262 266 269 271 278 286 296 304 317 327 338 349 358 2 5 7 9 10 12 14 15
198 199 204 211 220 243 272 287 294 297 298 298 297 297 295 295 293 286 285 286 284 270 262 257 265 267 267 273 284 293 301 310 317 325 335 344 351 357 1 3 5 6 8 11
186 191 193 202 227 272 295 306 309 311 311 307 304 302 300 302 302 297 293 286 276 263 267 268 264 266 270 277 285 290 295 301 305 311 320 329 334 338 342 348 352 353 356 359
170 170 175 246 304 313 317 321 323 321 320 320 319 318 318 319 310 295 294 287 283 278 272 268 265 265 273 278 285 289 292 298 303 308 314 320 322 326 330 334 337 339 342 346
150 143 85 341 337 330 334 341 343 344 341 336 332 326 328 327 316 314 290 281 281 277 278 271 269 273 276 282 286 289 295 301 304 309 313 317 321 325 327 329 330 334 338 341
134 126 82 11 358 347 355 9 7 360 354 347 331 321 319 320 315 309 306 301 297 291 286 282 280 278 285 287 290 294 298 299 304 305 310 314 317 320 325 328 329 331 333 336
132 120 117 119 98 37 8 7 11 5 353 348 350 339 334 329 324 320 316 313 308 303 300 296 300 295 291 294 296 296 297 299 301 304 308 308 310 314 317 321 323 325 326 329